Hinsdale, NY

6:17 PM EST on December 10, 2016 (GMT -0500)
Cattaraugus County-Olean

Weather History for KOLE - September, 2012

Change the Weather History Date:

Monday, September 17, 2012

  Actual Average (KBFD) Record (KBFD)
Temperature  
Mean Temperature 57 °F -  
Max Temperature 68 °F 67 °F 79 °F (1965)
Min Temperature 46 °F 46 °F 23 °F (1959)
Degree Days  
Heating Degree Days 8    
Growing Degree Days 7 (Base 50)    
Moisture  
Dew Point 48 °F    
Average Humidity 72    
Maximum Humidity 100    
Minimum Humidity 46    
Precipitation  
Precipitation 0.00 in - - ()
Sea Level Pressure  
Sea Level Pressure 30.03 in    
Wind  
Wind Speed 5 mph ()    
Max Wind Speed 13 mph    
Max Gust Speed 22 mph    
Visibility 10.0 miles    
Events      
Averages and records for this station are not official NWS values.
T = Trace of Precipitation, MM = Missing Value Source: Averaged Metar Reports

Daily Weather History Graph

Daily Weather History Graph

Search for Another Location

Airport or City:

Trip Planner

Search our weather history database for the weather conditions in past years. The results will help you decide how hot, cold, wet, or windy it might be!

Date:

Astronomy

Sep. 17, 2012 Rise Set
Actual Time 6:56 AM EDT 7:18 PM EDT
Civil Twilight 6:27 AM EDT 7:46 PM EDT
Nautical Twilight 5:54 AM EDT 8:19 PM EDT
Astronomical Twilight 5:20 AM EDT 8:53 PM EDT
Moon 8:46 AM EDT (9/17) 7:55 PM EDT (9/17)
Length of Visible Light 13h 18m
Length of Day
12h 22m
Waxing Crescent, 3% of the Moon is Illuminated
Sep 17
Waxing Crescent
Sep 22
First Quarter
Sep 29
Full
Oct 8
Last Quarter
Oct 15
New

Hourly Weather History & Observations

Time (EDT) Temp. Windchill Dew Point Humidity Pressure Visibility Wind Dir Wind Speed Gust Speed Precip Events Conditions
12:15 AM 53.6 °F - 48.2 °F 82% 30.10 in 10.0 mi SW 4.6 mph - N/A   Clear
12:35 AM 51.8 °F - 48.2 °F 88% 30.10 in 10.0 mi SSW 5.8 mph - N/A   Clear
12:55 AM 51.8 °F - 50.0 °F 94% 30.10 in 10.0 mi SSW 6.9 mph - N/A   Clear
1:15 AM 51.8 °F - 50.0 °F 94% 30.10 in 10.0 mi SSW 6.9 mph - N/A   Clear
1:35 AM 51.8 °F - 50.0 °F 94% 30.10 in 10.0 mi SSW 5.8 mph - N/A   Clear
2:15 AM 50.0 °F - 48.2 °F 94% 30.11 in 10.0 mi SW 3.5 mph - N/A   Clear
2:35 AM 51.8 °F - 50.0 °F 94% 30.10 in 10.0 mi SSW 6.9 mph - N/A   Clear
2:55 AM 50.0 °F - 50.0 °F 100% 30.10 in 10.0 mi SSW 8.1 mph - N/A   Clear
3:15 AM 50.0 °F - 50.0 °F 100% 30.10 in 10.0 mi SSW 6.9 mph - N/A   Clear
3:35 AM 50.0 °F - 50.0 °F 100% 30.10 in 10.0 mi SW 4.6 mph - N/A   Clear
3:55 AM 50.0 °F - 48.2 °F 94% 30.10 in 10.0 mi Calm Calm - N/A   Clear
4:15 AM 50.0 °F - 48.2 °F 94% 30.10 in 10.0 mi SSW 5.8 mph - N/A   Clear
4:35 AM 50.0 °F - 48.2 °F 94% 30.09 in 10.0 mi Calm Calm - N/A   Clear
5:15 AM 50.0 °F - 48.2 °F 94% 30.09 in 10.0 mi Calm Calm - N/A   Clear
5:55 AM 50.0 °F - 48.2 °F 94% 30.09 in 10.0 mi SSW 3.5 mph - N/A   Clear
6:15 AM 48.2 °F - 46.4 °F 93% 30.10 in 10.0 mi SSW 4.6 mph - N/A   Clear
6:35 AM 48.2 °F - 46.4 °F 93% 30.09 in 10.0 mi SSW 3.5 mph - N/A   Clear
6:55 AM 48.2 °F - 46.4 °F 93% 30.09 in 10.0 mi SSW 3.5 mph - N/A   Clear
7:15 AM 46.4 °F 44.3 °F 46.4 °F 100% 30.09 in 10.0 mi SSW 4.6 mph - N/A   Clear
7:35 AM 50.0 °F - 46.4 °F 87% 30.10 in 10.0 mi SSW 4.6 mph - N/A   Clear
8:15 AM 50.0 °F - 46.4 °F 87% 30.10 in 10.0 mi SSW 4.6 mph - N/A   Clear
8:35 AM 51.8 °F - 46.4 °F 82% 30.10 in 10.0 mi SSW 5.8 mph - N/A   Clear
9:15 AM 53.6 °F - 48.2 °F 82% 30.10 in 10.0 mi SSW 4.6 mph - N/A   Clear
9:35 AM 51.8 °F - 46.4 °F 82% 30.10 in 10.0 mi SSW 6.9 mph - N/A   Clear
9:55 AM 55.4 °F - 50.0 °F 82% 30.10 in 10.0 mi SSW 4.6 mph - N/A   Clear
10:15 AM 55.4 °F - 48.2 °F 77% 30.09 in 10.0 mi SSW 4.6 mph - N/A   Clear
10:35 AM 59.0 °F - 50.0 °F 72% 30.09 in 10.0 mi SSW 5.8 mph - N/A   Clear
10:55 AM 59.0 °F - 50.0 °F 72% 30.09 in 10.0 mi SSW 4.6 mph - N/A   Clear
11:35 AM 62.6 °F - 48.2 °F 59% 30.08 in 10.0 mi SSW 8.1 mph - N/A   Clear
11:55 AM 62.6 °F - 46.4 °F 55% 30.08 in 10.0 mi SSW 8.1 mph - N/A   Clear
12:15 PM 64.4 °F - 46.4 °F 52% 30.06 in 10.0 mi South 8.1 mph - N/A   Clear
12:35 PM 64.4 °F - 46.4 °F 52% 30.06 in 10.0 mi SSW 6.9 mph 21.9 mph N/A   Clear
12:55 PM 64.4 °F - 44.6 °F 49% 30.05 in 10.0 mi SSW 10.4 mph 17.3 mph N/A   Clear
1:15 PM 66.2 °F - 44.6 °F 46% 30.04 in 10.0 mi SSW 12.7 mph 19.6 mph N/A   Scattered Clouds
1:35 PM 66.2 °F - 44.6 °F 46% 30.04 in 10.0 mi South 12.7 mph 19.6 mph N/A   Clear
1:55 PM 66.2 °F - 44.6 °F 46% 30.02 in 10.0 mi South 10.4 mph 17.3 mph N/A   Clear
2:15 PM 66.2 °F - 46.4 °F 49% 30.02 in 10.0 mi SSW 8.1 mph - N/A   Clear
2:35 PM 66.2 °F - 46.4 °F 49% 30.01 in 10.0 mi SSW 10.4 mph - N/A   Clear
2:55 PM 66.2 °F - 46.4 °F 49% 30.00 in 10.0 mi South 6.9 mph - N/A   Clear
3:15 PM 68.0 °F - 46.4 °F 46% 29.99 in 10.0 mi SSW 8.1 mph - N/A   Clear
3:35 PM 68.0 °F - 46.4 °F 46% 29.99 in 10.0 mi South 8.1 mph - N/A   Scattered Clouds
3:55 PM 68.0 °F - 46.4 °F 46% 29.99 in 10.0 mi SW 6.9 mph - N/A   Scattered Clouds
4:15 PM 66.2 °F - 46.4 °F 49% 29.99 in 10.0 mi South 5.8 mph 17.3 mph N/A   Clear
4:35 PM 66.2 °F - 46.4 °F 49% 29.97 in 10.0 mi SSW 8.1 mph - N/A   Scattered Clouds
4:55 PM 66.2 °F - 46.4 °F 49% 29.97 in 10.0 mi SSW 6.9 mph - N/A   Clear
5:15 PM 66.2 °F - 48.2 °F 52% 29.97 in 10.0 mi South 8.1 mph - N/A   Clear
5:35 PM 64.4 °F - 48.2 °F 56% 29.97 in 10.0 mi South 3.5 mph - N/A   Clear
5:55 PM 64.4 °F - 50.0 °F 59% 29.97 in 10.0 mi South 3.5 mph - N/A   Clear
6:15 PM 64.4 °F - 50.0 °F 59% 29.97 in 10.0 mi South 4.6 mph - N/A   Clear
6:35 PM 62.6 °F - 48.2 °F 59% 29.96 in 10.0 mi South 3.5 mph - N/A   Clear
6:55 PM 62.6 °F - 50.0 °F 63% 29.95 in 10.0 mi SSE 3.5 mph - N/A   Clear
7:15 PM 60.8 °F - 50.0 °F 68% 29.95 in 10.0 mi South 3.5 mph - N/A   Clear
7:35 PM 60.8 °F - 48.2 °F 63% 29.94 in 10.0 mi South 3.5 mph - N/A   Clear
7:55 PM 60.8 °F - 48.2 °F 63% 29.94 in 10.0 mi South 4.6 mph - N/A   Clear
8:15 PM 60.8 °F - 48.2 °F 63% 29.94 in 10.0 mi SSE 3.5 mph - N/A   Clear
8:35 PM 59.0 °F - 48.2 °F 67% 29.94 in 10.0 mi SSE 4.6 mph - N/A   Clear
8:55 PM 59.0 °F - 50.0 °F 72% 29.94 in 10.0 mi SSE 5.8 mph - N/A   Clear
9:15 PM 59.0 °F - 50.0 °F 72% 29.94 in 10.0 mi SSE 5.8 mph - N/A   Clear
9:35 PM 59.0 °F - 50.0 °F 72% 29.93 in 10.0 mi South 5.8 mph - N/A   Clear
10:15 PM 59.0 °F - 50.0 °F 72% 29.93 in 10.0 mi SSE 3.5 mph - N/A   Clear
10:35 PM 59.0 °F - 50.0 °F 72% 29.92 in 10.0 mi South 3.5 mph - N/A   Clear
10:55 PM 59.0 °F - 50.0 °F 72% 29.92 in 10.0 mi South 5.8 mph - N/A   Clear
11:15 PM 59.0 °F - 51.8 °F 77% 29.92 in 10.0 mi South 5.8 mph - N/A   Clear
11:35 PM 59.0 °F - 51.8 °F 77% 29.91 in 10.0 mi South 8.1 mph - N/A   Clear
11:55 PM 59.0 °F - 51.8 °F 77% 29.90 in 10.0 mi South 5.8 mph - N/A   Clear